Regional Weather Roundup
Issued by NWS

Home | Current Version | Previous Version | Graphics & Text | Print | Product List | Glossary On
Versions: 1 2 3 4 5 6 7 8 9 10 11 12 13 14 15 16 17 18 19 20 21 22 23 24 25 26 27 28 29 30 31 32 33 34 35 36 37 38 39 40 41 42 43 44 45 46 47 48 49 50
000
ASUS43 KFSD 291710
RWRSD

WEATHER ROUNDUP FOR SOUTH DAKOTA
NATIONAL WEATHER SERVICE SIOUX FALLS SD
1200 PM CDT MON JUN 29 2015

NOTE: "FAIR" INDICATES FEW OR NO CLOUDS BELOW 12,000 FEET WITH NO
SIGNIFICANT WEATHER AND/OR OBSTRUCTIONS TO VISIBILITY.


SDZ001>005-009-010-012>017-291800-
NORTHWEST AND NORTH CENTRAL SOUTH DAKOTA

CITY           SKY/WX    TMP DP  RH WIND       PRES   REMARKS
BUFFALO          N/A     87  60  40 SW6       30.01S
FAITH            N/A     85  58  39 W5        30.04S
MOBRIDGE       SUNNY     85  63  47 NW10      29.96F
$$

SDZ012>016-024>037-041>051-057-063-072>074-291800-
SOUTHWEST AND SOUTH CENTRAL SOUTH DAKOTA

CITY           SKY/WX    TMP DP  RH WIND       PRES   REMARKS
RAPID CTY ARPT SUNNY     82  63  52 N10       30.10R
PIERRE         SUNNY     83  65  54 W7        29.98F
CUSTER         SUNNY     76  52  43 SW7       30.25S
ELLSWORTH AFB  SUNNY     80  62  53 N14       30.10R
PHILIP         SUNNY     86  62  44 CALM      30.02S
PINE RIDGE     SUNNY     82  59  45 VRB6      30.10S
SPEARFISH      FAIR      81  61  50 N7        30.16S
WINNER         FAIR      85  53  33 N10       30.02S
$$

SDZ004>011-016>023-039-040-291800-
NORTHEAST SOUTH DAKOTA

CITY           SKY/WX    TMP DP  RH WIND       PRES   REMARKS
ABERDEEN       SUNNY     81  61  50 NW10      29.93F
WATERTOWN      SUNNY     76  62  62 W10       29.94S
BROOKINGS      SUNNY     77  63  61 NW9       29.96S
SISSETON         N/A     79  61  53 NW10      29.88S
$$

SDZ017-020-022-023-036>040-048>070-291800-
SOUTHEAST SOUTH DAKOTA

CITY           SKY/WX    TMP DP  RH WIND       PRES   REMARKS
SIOUX FALLS    CLOUDY    81  60  48 NW9       29.94F
HURON          SUNNY     80  61  52 NW9       29.95F
CHAMBERLAIN    SUNNY     79  60  52 W6        29.99F
MITCHELL       SUNNY     82  61  48 NW9       29.96F HAZE
YANKTON        SUNNY     81  61  50 NW9       29.95F
$$

ABBREVIATIONS USED IN REMARKS
   TC - TEMPERATURE IN CELSIUS
  WCI - WIND CHILL INDEX
   HX - HEAT INDEX
  VSB - VISIBILITY



USA.gov is the U.S. government's official web portal to all federal, state and local government web resources and services.